Time,TemperatureF,DewpointF,PressureIn,WindDirection,WindDirectionDegrees,WindSpeedMPH,WindSpeedGustMPH,Humidity,HourlyPrecipIn,Conditions,Clouds,dailyrainin,SoftwareType,DateUTC
2013-02-11 00:02:00,39.0,28.0,29.79,WSW,250,27.0,39.0,64,-99.99,,,-99.99,,2013-02-11 06:02:00,
2013-02-11 00:11:00,39.0,28.0,29.79,WSW,250,27.0,39.0,64,-99.99,,,-99.99,,2013-02-11 06:11:00,
2013-02-11 00:21:00,36.0,27.0,29.82,West,260,27.0,35.0,69,-99.99,,,-99.99,,2013-02-11 06:21:00,
2013-02-11 00:32:00,36.0,27.0,29.82,West,260,25.0,35.0,69,-99.99,,,-99.99,,2013-02-11 06:32:00,
2013-02-11 00:42:00,36.0,27.0,29.83,West,260,27.0,33.0,69,-99.99,,,-99.99,,2013-02-11 06:42:00,
2013-02-11 00:52:00,36.0,25.0,29.83,WSW,250,30.0,40.0,64,-99.99,,,-99.99,,2013-02-11 06:52:00,
2013-02-11 01:01:00,36.0,25.0,29.83,WSW,250,30.0,40.0,64,-99.99,,,-99.99,,2013-02-11 07:01:00,
2013-02-11 01:11:00,36.0,25.0,29.83,WSW,250,30.0,40.0,64,-99.99,,,-99.99,,2013-02-11 07:11:00,
2013-02-11 01:21:00,36.0,27.0,29.85,West,260,25.0,36.0,69,-99.99,,,-99.99,,2013-02-11 07:21:00,
2013-02-11 01:32:00,36.0,27.0,29.85,West,260,23.0,38.0,69,-99.99,,,-99.99,,2013-02-11 07:32:00,
2013-02-11 01:42:00,36.0,27.0,29.85,WSW,250,27.0,40.0,69,-99.99,,,-99.99,,2013-02-11 07:42:00,
2013-02-11 01:52:00,36.0,27.0,29.85,West,260,28.0,36.0,69,-99.99,,,-99.99,,2013-02-11 07:52:00,
2013-02-11 02:01:00,36.0,27.0,29.85,West,260,28.0,36.0,69,-99.99,,,-99.99,,2013-02-11 08:01:00,
2013-02-11 02:11:00,36.0,27.0,29.85,West,260,28.0,36.0,69,-99.99,,,-99.99,,2013-02-11 08:11:00,
2013-02-11 02:21:00,36.0,25.0,29.87,West,270,27.0,33.0,64,-99.99,,,-99.99,,2013-02-11 08:21:00,
2013-02-11 02:31:00,34.0,25.0,29.88,West,270,24.0,33.0,69,-99.99,,,-99.99,,2013-02-11 08:31:00,
2013-02-11 02:42:00,34.0,25.0,29.88,West,270,16.0,30.0,69,-99.99,,,-99.99,,2013-02-11 08:42:00,
2013-02-11 02:52:00,34.0,25.0,29.88,West,260,18.0,23.0,69,-99.99,,,-99.99,,2013-02-11 08:52:00,
2013-02-11 03:01:00,34.0,25.0,29.88,West,260,18.0,23.0,69,-99.99,,,-99.99,,2013-02-11 09:01:00,
2013-02-11 03:12:00,34.0,25.0,29.88,West,260,18.0,23.0,69,-99.99,,,-99.99,,2013-02-11 09:12:00,
2013-02-11 03:21:00,34.0,27.0,29.89,West,260,18.0,-999.0,74,-99.99,,,-99.99,,2013-02-11 09:21:00,
2013-02-11 03:32:00,36.0,27.0,29.89,West,260,18.0,28.0,69,-99.99,,,-99.99,,2013-02-11 09:32:00,
2013-02-11 03:42:00,36.0,27.0,29.89,WSW,250,18.0,27.0,69,-99.99,,,-99.99,,2013-02-11 09:42:00,
2013-02-11 03:52:00,36.0,27.0,29.89,WSW,250,18.0,25.0,69,-99.99,,,-99.99,,2013-02-11 09:52:00,
2013-02-11 04:01:00,36.0,27.0,29.89,WSW,250,18.0,25.0,69,-99.99,,,-99.99,,2013-02-11 10:01:00,
2013-02-11 04:11:00,36.0,27.0,29.89,WSW,250,18.0,25.0,69,-99.99,,,-99.99,,2013-02-11 10:11:00,
2013-02-11 04:21:00,36.0,27.0,29.90,West,260,18.0,28.0,69,-99.99,,,-99.99,,2013-02-11 10:21:00,
2013-02-11 04:31:00,36.0,27.0,29.90,West,260,21.0,32.0,69,-99.99,,,-99.99,,2013-02-11 10:31:00,
2013-02-11 04:42:00,36.0,27.0,29.90,West,270,18.0,39.0,69,-99.99,,,-99.99,,2013-02-11 10:42:00,
2013-02-11 04:52:00,36.0,27.0,29.91,West,270,24.0,33.0,69,-99.99,,,-99.99,,2013-02-11 10:52:00,
2013-02-11 05:01:00,36.0,27.0,29.91,West,270,24.0,33.0,69,-99.99,,,-99.99,,2013-02-11 11:01:00,
2013-02-11 05:11:00,36.0,27.0,29.91,West,270,24.0,33.0,69,-99.99,,,-99.99,,2013-02-11 11:11:00,
2013-02-11 05:22:00,36.0,25.0,29.92,West,270,28.0,36.0,64,-99.99,,,-99.99,,2013-02-11 11:22:00,
2013-02-11 05:32:00,36.0,25.0,29.92,West,280,27.0,33.0,64,-99.99,,,-99.99,,2013-02-11 11:32:00,
2013-02-11 05:42:00,36.0,25.0,29.92,West,270,23.0,30.0,64,-99.99,,,-99.99,,2013-02-11 11:42:00,
2013-02-11 05:52:00,36.0,25.0,29.93,West,270,18.0,33.0,64,-99.99,,,-99.99,,2013-02-11 11:52:00,
2013-02-11 06:03:00,36.0,25.0,29.93,West,270,18.0,33.0,64,-99.99,,,-99.99,,2013-02-11 12:03:00,
2013-02-11 06:12:00,36.0,25.0,29.93,West,270,18.0,33.0,64,-99.99,,,-99.99,,2013-02-11 12:12:00,
2013-02-11 06:22:00,34.0,25.0,29.94,West,270,20.0,32.0,69,-99.99,,,-99.99,,2013-02-11 12:22:00,
2013-02-11 06:32:00,34.0,25.0,29.95,West,280,17.0,29.0,69,-99.99,,,-99.99,,2013-02-11 12:32:00,
2013-02-11 06:42:00,34.0,25.0,29.95,West,270,22.0,28.0,69,-99.99,,,-99.99,,2013-02-11 12:42:00,
2013-02-11 06:52:00,34.0,25.0,29.96,West,280,21.0,29.0,69,-99.99,,,-99.99,,2013-02-11 12:52:00,
2013-02-11 07:02:00,34.0,25.0,29.96,West,280,21.0,29.0,69,-99.99,,,-99.99,,2013-02-11 13:02:00,
2013-02-11 07:11:00,34.0,25.0,29.96,West,280,21.0,29.0,69,-99.99,,,-99.99,,2013-02-11 13:11:00,
2013-02-11 07:22:00,32.0,25.0,29.98,West,270,17.0,21.0,74,-99.99,,,-99.99,,2013-02-11 13:22:00,
2013-02-11 07:32:00,32.0,25.0,29.98,West,280,22.0,28.0,74,-99.99,,,-99.99,,2013-02-11 13:32:00,
2013-02-11 07:42:00,32.0,25.0,29.99,West,280,17.0,25.0,74,-99.99,,,-99.99,,2013-02-11 13:42:00,
2013-02-11 07:52:00,34.0,25.0,30.00,West,280,18.0,25.0,69,-99.99,,,-99.99,,2013-02-11 13:52:00,
2013-02-11 08:01:00,34.0,25.0,30.00,West,280,18.0,25.0,69,-99.99,,,-99.99,,2013-02-11 14:01:00,
2013-02-11 08:11:00,34.0,25.0,30.00,West,280,18.0,25.0,69,-99.99,,,-99.99,,2013-02-11 14:11:00,
2013-02-11 08:21:00,34.0,27.0,30.02,West,260,16.0,21.0,74,-99.99,,,-99.99,,2013-02-11 14:21:00,
2013-02-11 08:32:00,34.0,27.0,30.03,West,260,15.0,-999.0,74,-99.99,,,-99.99,,2013-02-11 14:32:00,
2013-02-11 08:42:00,34.0,27.0,30.03,West,260,20.0,25.0,74,-99.99,,,-99.99,,2013-02-11 14:42:00,
2013-02-11 08:53:00,34.0,27.0,30.03,West,270,17.0,27.0,74,-99.99,,,-99.99,,2013-02-11 14:53:00,
2013-02-11 09:02:00,34.0,27.0,30.03,West,270,17.0,27.0,74,-99.99,,,-99.99,,2013-02-11 15:02:00,
2013-02-11 09:11:00,34.0,27.0,30.03,West,270,17.0,27.0,74,-99.99,,,-99.99,,2013-02-11 15:11:00,
2013-02-11 09:22:00,34.0,25.0,30.04,West,280,27.0,37.0,69,-99.99,,,-99.99,,2013-02-11 15:22:00,
2013-02-11 09:32:00,34.0,25.0,30.05,West,280,24.0,32.0,69,-99.99,,,-99.99,,2013-02-11 15:32:00,
2013-02-11 09:42:00,34.0,25.0,30.05,WNW,290,23.0,33.0,69,-99.99,,,-99.99,,2013-02-11 15:42:00,
2013-02-11 09:52:00,36.0,25.0,30.05,West,280,22.0,29.0,64,-99.99,,,-99.99,,2013-02-11 15:52:00,
2013-02-11 10:02:00,36.0,25.0,30.05,West,280,22.0,29.0,64,-99.99,,,-99.99,,2013-02-11 16:02:00,
2013-02-11 10:11:00,36.0,25.0,30.05,West,280,22.0,29.0,64,-99.99,,,-99.99,,2013-02-11 16:11:00,
2013-02-11 10:22:00,36.0,25.0,30.07,WNW,290,24.0,33.0,64,-99.99,,,-99.99,,2013-02-11 16:22:00,
2013-02-11 10:32:00,36.0,27.0,30.07,West,280,23.0,30.0,69,-99.99,,,-99.99,,2013-02-11 16:32:00,
2013-02-11 10:42:00,37.0,27.0,30.07,WNW,290,22.0,29.0,64,-99.99,,,-99.99,,2013-02-11 16:42:00,
2013-02-11 10:52:00,37.0,27.0,30.07,West,280,20.0,27.0,64,-99.99,,,-99.99,,2013-02-11 16:52:00,
2013-02-11 11:01:00,37.0,27.0,30.07,West,280,20.0,27.0,64,-99.99,,,-99.99,,2013-02-11 17:01:00,
2013-02-11 11:11:00,37.0,27.0,30.07,West,280,20.0,27.0,64,-99.99,,,-99.99,,2013-02-11 17:11:00,
2013-02-11 11:21:00,37.0,28.0,30.08,West,280,20.0,28.0,69,-99.99,,,-99.99,,2013-02-11 17:21:00,
2013-02-11 11:32:00,39.0,28.0,30.08,West,270,17.0,25.0,64,-99.99,,,-99.99,,2013-02-11 17:32:00,
2013-02-11 11:42:00,39.0,28.0,30.08,West,280,18.0,27.0,64,-99.99,,,-99.99,,2013-02-11 17:42:00,
2013-02-11 11:53:00,39.0,28.0,30.08,West,270,20.0,25.0,64,-99.99,,,-99.99,,2013-02-11 17:53:00,
2013-02-11 12:01:00,39.0,28.0,30.08,West,270,20.0,25.0,64,-99.99,,,-99.99,,2013-02-11 18:01:00,
2013-02-11 12:11:00,39.0,28.0,30.08,West,270,20.0,25.0,64,-99.99,,,-99.99,,2013-02-11 18:11:00,
2013-02-11 12:21:00,41.0,28.0,30.08,West,280,16.0,28.0,60,-99.99,,,-99.99,,2013-02-11 18:21:00,
2013-02-11 12:32:00,41.0,28.0,30.08,West,270,16.0,23.0,60,-99.99,,,-99.99,,2013-02-11 18:32:00,
2013-02-11 12:42:00,41.0,28.0,30.08,West,260,15.0,-999.0,60,-99.99,,,-99.99,,2013-02-11 18:42:00,
2013-02-11 12:53:00,43.0,28.0,30.07,WNW,290,17.0,25.0,56,-99.99,,,-99.99,,2013-02-11 18:53:00,
2013-02-11 13:02:00,43.0,28.0,30.07,WNW,290,17.0,25.0,56,-99.99,,,-99.99,,2013-02-11 19:02:00,
2013-02-11 13:11:00,43.0,28.0,30.07,WNW,290,17.0,25.0,56,-99.99,,,-99.99,,2013-02-11 19:11:00,
2013-02-11 13:21:00,43.0,28.0,30.07,West,280,16.0,25.0,56,-99.99,,,-99.99,,2013-02-11 19:21:00,
2013-02-11 13:32:00,43.0,28.0,30.07,West,270,16.0,-999.0,56,-99.99,,,-99.99,,2013-02-11 19:32:00,
2013-02-11 13:42:00,45.0,30.0,30.07,West,260,13.0,24.0,56,-99.99,,,-99.99,,2013-02-11 19:42:00,
2013-02-11 13:51:00,45.0,28.0,30.07,West,260,15.0,23.0,52,-99.99,,,-99.99,,2013-02-11 19:51:00,
2013-02-11 14:01:00,45.0,28.0,30.07,West,260,15.0,23.0,52,-99.99,,,-99.99,,2013-02-11 20:01:00,
2013-02-11 14:11:00,45.0,28.0,30.07,West,260,15.0,23.0,52,-99.99,,,-99.99,,2013-02-11 20:11:00,
2013-02-11 14:21:00,45.0,30.0,30.07,WSW,250,18.0,22.0,56,-99.99,,,-99.99,,2013-02-11 20:21:00,
2013-02-11 14:32:00,45.0,30.0,30.07,West,260,18.0,28.0,56,-99.99,,,-99.99,,2013-02-11 20:32:00,
2013-02-11 14:42:00,45.0,30.0,30.07,West,260,18.0,23.0,56,-99.99,,,-99.99,,2013-02-11 20:42:00,
2013-02-11 14:52:00,45.0,30.0,30.07,West,270,15.0,20.0,56,-99.99,,,-99.99,,2013-02-11 20:52:00,
2013-02-11 15:02:00,45.0,30.0,30.07,West,270,15.0,20.0,56,-99.99,,,-99.99,,2013-02-11 21:02:00,
2013-02-11 15:11:00,45.0,30.0,30.07,West,270,15.0,20.0,56,-99.99,,,-99.99,,2013-02-11 21:11:00,
2013-02-11 15:21:00,45.0,28.0,30.07,West,280,13.0,24.0,52,-99.99,,,-99.99,,2013-02-11 21:21:00,
2013-02-11 15:32:00,45.0,28.0,30.07,West,270,17.0,28.0,52,-99.99,,,-99.99,,2013-02-11 21:32:00,
2013-02-11 15:42:00,45.0,28.0,30.07,West,270,14.0,23.0,52,-99.99,,,-99.99,,2013-02-11 21:42:00,
2013-02-11 15:52:00,45.0,30.0,30.08,WSW,250,14.0,-999.0,56,-99.99,,,-99.99,,2013-02-11 21:52:00,
2013-02-11 16:01:00,45.0,30.0,30.08,WSW,250,14.0,-999.0,56,-99.99,,,-99.99,,2013-02-11 22:01:00,
2013-02-11 16:11:00,45.0,30.0,30.08,WSW,250,14.0,-999.0,56,-99.99,,,-99.99,,2013-02-11 22:11:00,
2013-02-11 16:21:00,45.0,28.0,30.07,West,280,16.0,23.0,52,-99.99,,,-99.99,,2013-02-11 22:21:00,
2013-02-11 16:32:00,45.0,28.0,30.07,WNW,290,16.0,22.0,52,-99.99,,,-99.99,,2013-02-11 22:32:00,
2013-02-11 16:42:00,45.0,30.0,30.08,West,280,14.0,-999.0,56,-99.99,,,-99.99,,2013-02-11 22:42:00,
2013-02-11 16:52:00,45.0,30.0,30.08,West,260,16.0,-999.0,56,-99.99,,,-99.99,,2013-02-11 22:52:00,
2013-02-11 17:02:00,45.0,30.0,30.08,West,260,16.0,-999.0,56,-99.99,,,-99.99,,2013-02-11 23:02:00,
2013-02-11 17:11:00,45.0,30.0,30.08,West,260,16.0,-999.0,56,-99.99,,,-99.99,,2013-02-11 23:11:00,
2013-02-11 17:21:00,43.0,30.0,30.08,West,260,10.0,-999.0,60,-99.99,,,-99.99,,2013-02-11 23:21:00,
2013-02-11 17:32:00,43.0,28.0,30.09,West,270,9.0,18.0,56,-99.99,,,-99.99,,2013-02-11 23:32:00,
2013-02-11 17:42:00,41.0,28.0,30.09,West,270,10.0,-999.0,60,-99.99,,,-99.99,,2013-02-11 23:42:00,
2013-02-11 17:52:00,41.0,28.0,30.09,West,280,10.0,16.0,60,-99.99,,,-99.99,,2013-02-11 23:52:00,
2013-02-11 18:01:00,41.0,28.0,30.09,West,280,10.0,16.0,60,-99.99,,,-99.99,,2013-02-12 00:01:00,
2013-02-11 18:11:00,41.0,28.0,30.09,West,280,10.0,16.0,60,-99.99,,,-99.99,,2013-02-12 00:11:00,
2013-02-11 18:22:00,39.0,28.0,30.09,West,280,7.0,-999.0,64,-99.99,,,-99.99,,2013-02-12 00:22:00,
2013-02-11 18:32:00,37.0,28.0,30.10,West,270,7.0,-999.0,69,-99.99,,,-99.99,,2013-02-12 00:32:00,
2013-02-11 18:42:00,37.0,28.0,30.10,West,270,7.0,-999.0,69,-99.99,,,-99.99,,2013-02-12 00:42:00,
2013-02-11 18:52:00,37.0,28.0,30.10,West,280,8.0,-999.0,69,-99.99,,,-99.99,,2013-02-12 00:52:00,
2013-02-11 19:02:00,37.0,28.0,30.10,West,280,8.0,-999.0,69,-99.99,,,-99.99,,2013-02-12 01:02:00,
2013-02-11 19:11:00,37.0,28.0,30.10,West,280,8.0,-999.0,69,-99.99,,,-99.99,,2013-02-12 01:11:00,
2013-02-11 19:21:00,37.0,27.0,30.11,West,270,7.0,-999.0,64,-99.99,,,-99.99,,2013-02-12 01:21:00,
2013-02-11 19:32:00,36.0,27.0,30.11,West,260,8.0,-999.0,69,-99.99,,,-99.99,,2013-02-12 01:32:00,
2013-02-11 19:42:00,36.0,27.0,30.11,WSW,250,8.0,-999.0,69,-99.99,,,-99.99,,2013-02-12 01:42:00,
2013-02-11 19:52:00,34.0,27.0,30.11,West,260,6.0,-999.0,74,-99.99,,,-99.99,,2013-02-12 01:52:00,
2013-02-11 20:01:00,34.0,27.0,30.11,West,260,6.0,-999.0,74,-99.99,,,-99.99,,2013-02-12 02:01:00,
2013-02-11 20:11:00,34.0,27.0,30.11,West,260,6.0,-999.0,74,-99.99,,,-99.99,,2013-02-12 02:11:00,
2013-02-11 20:21:00,36.0,27.0,30.11,West,260,7.0,-999.0,69,-99.99,,,-99.99,,2013-02-12 02:21:00,
2013-02-11 20:31:00,34.0,27.0,30.12,West,260,7.0,-999.0,74,-99.99,,,-99.99,,2013-02-12 02:31:00,
2013-02-11 20:42:00,34.0,27.0,30.12,WSW,250,6.0,-999.0,74,-99.99,,,-99.99,,2013-02-12 02:42:00,
2013-02-11 20:52:00,34.0,27.0,30.13,West,260,5.0,-999.0,74,-99.99,,,-99.99,,2013-02-12 02:52:00,
2013-02-11 21:02:00,34.0,27.0,30.13,West,260,5.0,-999.0,74,-99.99,,,-99.99,,2013-02-12 03:02:00,
2013-02-11 21:11:00,34.0,27.0,30.13,West,260,5.0,-999.0,74,-99.99,,,-99.99,,2013-02-12 03:11:00,
2013-02-11 21:21:00,34.0,27.0,30.13,West,270,6.0,-999.0,74,-99.99,,,-99.99,,2013-02-12 03:21:00,
2013-02-11 21:31:00,34.0,27.0,30.14,West,270,6.0,-999.0,74,-99.99,,,-99.99,,2013-02-12 03:31:00,
2013-02-11 21:42:00,34.0,27.0,30.14,West,270,6.0,-999.0,74,-99.99,,,-99.99,,2013-02-12 03:42:00,
2013-02-11 21:52:00,32.0,27.0,30.14,West,260,6.0,-999.0,80,-99.99,,,-99.99,,2013-02-12 03:52:00,
2013-02-11 22:01:00,32.0,27.0,30.14,West,260,6.0,-999.0,80,-99.99,,,-99.99,,2013-02-12 04:01:00,
2013-02-11 22:11:00,32.0,27.0,30.14,West,260,6.0,-999.0,80,-99.99,,,-99.99,,2013-02-12 04:11:00,
2013-02-11 22:21:00,34.0,27.0,30.15,West,280,6.0,-999.0,74,-99.99,,,-99.99,,2013-02-12 04:21:00,
2013-02-11 22:31:00,32.0,27.0,30.15,West,280,7.0,-999.0,80,-99.99,,,-99.99,,2013-02-12 04:31:00,
2013-02-11 22:42:00,32.0,27.0,30.15,WNW,300,7.0,-999.0,80,-99.99,,,-99.99,,2013-02-12 04:42:00,
2013-02-11 22:52:00,32.0,27.0,30.15,WNW,300,5.0,-999.0,80,-99.99,,,-99.99,,2013-02-12 04:52:00,
2013-02-11 23:01:00,32.0,27.0,30.15,WNW,300,5.0,-999.0,80,-99.99,,,-99.99,,2013-02-12 05:01:00,
2013-02-11 23:11:00,32.0,27.0,30.15,WNW,300,5.0,-999.0,80,-99.99,,,-99.99,,2013-02-12 05:11:00,
2013-02-11 23:21:00,32.0,25.0,30.16,WNW,290,5.0,-999.0,74,-99.99,,,-99.99,,2013-02-12 05:21:00,
2013-02-11 23:31:00,32.0,25.0,30.16,WNW,290,3.0,-999.0,74,-99.99,,,-99.99,,2013-02-12 05:31:00,
2013-02-11 23:42:00,28.0,25.0,30.16,North,0,0.0,-999.0,86,-99.99,,,-99.99,,2013-02-12 05:42:00,
2013-02-11 23:52:00,30.0,27.0,30.16,NW,310,3.0,-999.0,86,-99.99,,,-99.99,,2013-02-12 05:52:00,